Johnson County (6A4)
Johnson County, TN
Field Elevation: 2240
Lat: 36°25.07N  Long: 81°49.51W
CTAF/Unicom Freq: 122.7000
   
    
Weather Advisories
12/19/2014 06:26 Z
Altimeter 30.11" Hg
Wind 230° @ 0 KT
Gusts --
Visibility 10 SM
Ceiling OVC034
Temperature 3° C (37° F)
Dewpoint -3° C (27° F)
Relative Humidity 62%
Density Altitude --
Condensation Altitude 5,300 feet
  Wind and Runways
Indicated Runway = 24
History
 
 
More Info
All DigiWx sites map
 
Johnson County Airport FBO
 
Airport IQ 5010
(M01) General Dewitt Spain Airport
(3M3) Collegedale Muni
 
about DigiWx
 
FAA Disclaimer: The data displayed is for advisory purposes only and is not to be used for flight planning or operations. For official data, please call (not available) to hear the current automated AWOS voice message.
  METAR 6A4 190626Z AUTO 23000KT 10SM OVC034 03/M03 A3011